Date,TemperatureHighF,TemperatureAvgF,TemperatureLowF,DewpointHighF,DewpointAvgF,DewpointLowF,HumidityHigh,HumidityAvg,HumidityLow,PressureMaxIn,PressureMinIn,WindSpeedMaxMPH,WindSpeedAvgMPH,GustSpeedMaxMPH,PrecipitationSumIn
2013-1-1,62,54,45,56,50,43,98,88,76,30.17,29.92,1,0,4,0.00
2013-1-2,56,53,48,55,51,45,100,92,80,30.17,29.87,4,2,10,0.02
2013-1-3,48,44,36,45,42,35,96,93,88,30.27,30.10,3,1,7,0.09
2013-1-4,55,40,31,41,34,30,99,82,45,30.35,30.21,3,0,8,0.01
2013-1-5,55,39,27,39,32,27,98,78,40,30.41,30.28,2,0,5,0.01
2013-1-6,54,48,41,47,44,39,98,86,68,30.30,30.07,2,0,4,0.02
2013-1-7,56,46,35,45,39,34,98,77,45,30.39,30.15,4,1,10,0.00
2013-1-8,68,52,44,55,45,37,99,77,60,30.41,30.30,4,1,9,0.00
2013-1-9,75,58,44,61,54,43,99,87,60,30.39,30.31,3,0,7,0.00
2013-1-10,72,60,50,58,52,45,99,78,59,30.46,30.36,5,1,11,0.00
2013-1-11,77,62,54,67,58,48,98,87,67,30.36,30.15,4,1,10,0.09
2013-1-12,82,66,57,67,61,56,100,88,56,30.19,30.09,2,0,7,0.01
2013-1-13,77,63,54,66,59,53,100,87,61,30.17,30.06,4,1,8,0.00
2013-1-14,79,65,54,67,60,53,100,86,61,30.18,30.08,4,1,11,0.01
2013-1-15,78,66,56,66,62,55,100,88,60,30.16,30.01,4,1,8,0.01
2013-1-16,81,68,58,67,62,57,100,83,52,30.03,29.92,5,1,13,0.00
2013-1-17,79,62,44,66,58,42,99,85,58,30.03,29.70,6,2,18,0.29
2013-1-18,54,44,36,42,35,28,95,73,38,30.50,30.03,6,2,16,0.00
2013-1-19,64,46,33,46,38,31,96,76,46,30.49,30.21,2,0,5,0.00
2013-1-20,69,50,37,49,39,33,99,74,28,30.21,29.99,2,0,7,0.00
2013-1-21,67,50,34,48,38,33,100,68,33,30.07,29.90,4,0,12,0.00
2013-1-22,52,42,30,36,27,20,89,57,30,30.25,29.98,4,1,11,0.00
2013-1-23,50,36,28,32,21,11,93,60,26,30.38,30.14,4,1,10,0.00
2013-1-24,58,42,30,45,30,13,95,63,39,30.51,30.03,8,3,21,0.00
2013-1-25,40,33,27,28,20,10,75,60,46,30.50,30.14,4,1,9,0.00
2013-1-26,54,42,35,37,32,27,83,69,53,30.35,30.11,5,1,10,0.00
2013-1-27,49,39,31,34,31,28,90,75,49,30.55,30.35,4,1,10,0.00
2013-1-28,61,47,36,56,41,31,97,82,66,30.51,30.27,3,1,7,0.00
2013-1-29,78,58,40,65,53,40,100,87,56,30.27,30.10,4,1,9,0.00
2013-1-30,74,68,56,67,64,55,99,87,76,30.10,29.56,11,5,29,0.01
2013-1-31,73,50,39,67,38,26,95,64,32,30.11,29.55,9,2,23,0.27
2013-2-1,56,44,32,36,25,10,68,48,20,30.36,30.07,7,2,15,0.00
2013-2-2,52,39,28,42,27,14,100,64,40,30.41,30.05,4,1,8,0.00
2013-2-3,59,46,34,40,35,31,100,71,39,30.06,29.86,3,1,13,0.00
2013-2-4,52,40,29,36,32,27,97,74,42,30.16,30.02,3,0,7,0.00
2013-2-5,70,51,34,49,40,32,98,72,31,30.06,29.90,4,1,11,0.00
2013-2-6,72,55,44,52,45,39,98,74,32,30.20,29.99,3,0,7,0.00
2013-2-7,57,51,44,54,49,42,100,93,78,30.21,29.71,4,2,13,0.67
2013-2-8,64,55,47,54,49,45,97,83,58,30.03,29.65,5,2,14,0.09
2013-2-9,60,46,34,46,33,26,94,65,28,30.35,30.03,5,1,12,0.00
2013-2-10,62,47,32,51,40,30,97,79,52,30.45,30.22,5,1,13,0.00
2013-2-11,67,61,52,64,59,50,100,95,89,30.25,29.99,6,2,15,0.76
2013-2-12,64,58,51,59,55,50,99,91,66,30.10,29.90,3,0,7,0.69
2013-2-13,64,54,49,61,52,48,99,92,72,29.92,29.66,4,1,9,0.59
2013-2-14,55,48,40,50,41,38,96,78,53,30.07,29.82,4,1,10,0.00
2013-2-15,63,46,34,46,40,33,99,80,42,30.10,29.95,4,1,8,0.00
2013-2-16,53,40,34,43,38,33,99,91,67,29.97,29.79,5,1,16,0.24
2013-2-17,42,34,28,34,27,21,100,78,48,30.30,29.96,5,1,16,0.17
2013-2-18,53,38,24,34,28,22,100,73,32,30.44,30.28,4,1,9,0.00
2013-2-19,60,48,33,56,46,32,99,93,70,30.28,29.94,4,1,9,0.09
2013-2-20,61,47,33,47,36,24,99,71,25,30.14,30.00,3,0,10,0.01
2013-2-21,63,46,36,42,34,25,96,65,30,30.21,30.07,4,1,11,0.00
2013-2-22,49,46,41,48,42,30,98,88,58,30.26,30.06,4,2,11,0.30
2013-2-23,48,45,42,48,45,42,100,98,97,30.06,29.76,3,1,8,0.48
2013-2-24,67,52,44,52,47,43,99,85,47,29.99,29.77,3,1,10,0.00
2013-2-25,46,44,42,44,38,34,98,80,66,30.16,29.97,5,2,11,0.01
2013-2-26,72,58,42,68,56,40,99,94,81,30.03,29.54,7,3,15,1.25
2013-2-27,62,53,46,55,45,40,94,75,52,29.85,29.66,3,1,9,0.00
2013-2-28,60,50,44,44,39,35,92,68,39,29.86,29.74,3,1,12,0.00
2013-3-1,56,46,38,40,35,33,92,67,43,29.93,29.82,4,1,10,0.00
2013-3-2,52,43,34,39,36,32,97,79,53,29.91,29.81,3,0,6,0.00
2013-3-3,51,42,35,35,29,25,96,60,39,29.97,29.85,5,2,12,0.00
2013-3-4,54,40,29,33,26,21,89,62,30,30.15,29.97,4,1,13,0.00
2013-3-5,67,52,34,56,42,30,98,72,40,30.11,29.63,6,2,15,0.07
2013-3-6,60,50,42,56,34,28,89,57,39,30.04,29.60,5,2,21,0.00
2013-3-7,60,46,34,38,34,30,85,63,39,30.20,30.03,5,1,12,0.00
2013-3-8,58,45,34,36,32,29,90,62,34,30.26,30.13,6,2,15,0.00
2013-3-9,65,48,32,44,36,30,94,66,36,30.31,30.19,4,1,11,0.00
2013-3-10,67,50,35,48,35,22,99,65,19,30.30,30.20,4,1,11,0.00
2013-3-11,72,58,42,59,51,38,97,80,53,30.22,29.91,6,2,16,0.00
2013-3-12,72,64,54,65,60,50,98,88,70,29.92,29.75,6,2,16,0.29
2013-3-13,66,54,39,50,37,28,95,59,26,30.10,29.90,4,1,13,0.00
2013-3-14,56,45,34,36,27,22,88,51,29,30.28,30.08,6,2,13,0.00
2013-3-15,68,48,30,44,35,25,97,66,29,30.22,29.98,4,1,12,0.00
2013-3-16,82,67,55,52,46,43,69,50,29,29.98,29.77,5,2,16,0.00
2013-3-17,82,67,52,58,52,46,85,62,34,30.03,29.89,4,1,11,0.00
2013-3-18,66,57,50,56,52,47,97,85,67,30.11,29.84,4,2,10,0.00
2013-3-19,73,58,48,56,51,42,99,81,43,29.98,29.75,4,1,13,0.56
2013-3-20,59,50,39,44,31,20,91,53,23,30.11,29.80,5,1,10,0.00
2013-3-21,57,46,36,37,26,17,96,53,24,29.94,29.73,5,1,15,0.00
2013-3-22,57,43,29,39,26,18,83,54,27,30.10,29.94,4,1,10,0.00
2013-3-23,48,41,38,43,38,-100,96,89,76,30.07,30.00,1,-9,3,0.23
2013-3-27,57,48,38,38,34,29,88,63,36,30.23,30.14,3,0,9,0.00
2013-3-28,60,45,30,38,31,27,94,64,30,30.29,30.16,4,1,8,0.00
2013-3-29,65,48,32,44,34,29,97,65,27,30.36,30.19,4,1,9,0.00
2013-3-30,66,55,48,51,46,41,90,72,49,30.23,30.09,5,1,7,0.00
2013-3-31,76,63,50,61,56,48,96,79,55,30.09,29.85,6,2,11,0.28
2013-4-1,76,64,55,65,59,53,97,86,56,29.91,29.81,2,0,6,0.13
2013-4-2,68,56,48,54,41,-100,96,64,38,30.15,29.90,11,-17,11,0.00
2013-4-3,62,55,47,50,43,30,95,69,38,30.24,30.06,6,2,13,0.00
2013-4-4,56,51,47,54,47,41,94,87,65,30.25,29.82,5,2,8,0.69
2013-4-5,60,49,43,51,45,41,94,87,70,30.02,29.85,4,1,8,0.00
2013-4-6,69,53,40,53,43,37,92,73,37,30.26,30.02,6,2,9,0.01
2013-4-7,74,64,50,58,54,45,89,69,49,30.26,30.13,4,2,8,0.00
2013-4-8,80,64,50,62,55,47,88,74,46,30.19,30.10,6,1,8,0.00
2013-4-9,84,68,55,68,58,50,85,73,49,30.21,30.11,4,1,8,0.00
2013-4-10,85,70,57,67,60,52,83,73,51,30.15,30.02,5,1,8,0.00
2013-4-11,84,70,59,71,62,52,81,76,57,30.02,29.84,6,2,10,0.00
2013-4-12,82,72,68,72,65,60,80,77,72,29.86,29.68,5,3,11,0.84
2013-4-13,77,64,53,60,52,46,81,67,36,30.02,29.78,4,1,8,0.01
2013-4-14,75,63,51,61,54,44,80,72,50,30.09,29.98,0,0,8,0.02
2013-4-15,73,67,62,64,59,54,79,76,73,30.16,29.90,0,0,8,0.41
2013-4-16,79,68,58,66,58,50,79,72,60,30.24,30.14,0,0,8,0.01
2013-4-17,82,68,57,68,58,48,79,69,56,30.23,30.13,0,0,8,0.00
2013-4-18,78,69,61,67,59,51,79,71,62,30.16,30.04,0,0,8,0.00
2013-4-19,80,73,66,72,64,55,79,73,65,30.04,29.84,7,1,10,0.69
2013-4-20,68,57,47,56,47,39,83,69,54,30.23,29.88,5,1,9,0.24
2013-4-21,69,56,44,51,44,37,83,63,42,30.38,30.23,6,3,13,0.01
2013-4-22,67,56,46,53,46,38,82,70,58,30.36,30.14,6,4,11,0.00
2013-4-23,67,57,51,58,50,44,81,77,66,30.21,30.11,6,2,8,0.00
2013-4-24,76,62,48,63,53,39,81,71,58,30.18,30.04,5,1,8,0.00
2013-4-25,79,66,58,69,57,47,80,72,61,30.24,30.06,4,1,8,0.00
2013-4-26,75,61,52,55,48,40,82,63,34,30.39,30.23,4,1,8,0.00
2013-4-27,76,62,52,58,48,43,80,63,35,30.34,30.24,5,1,12,0.00
2013-4-28,72,65,57,62,57,49,80,76,70,30.24,30.05,6,2,10,0.00
2013-4-29,72,66,62,65,54,48,79,66,58,30.06,29.95,4,1,8,2.67
2013-4-30,76,67,62,66,55,47,79,67,56,30.10,29.96,4,1,8,0.00
2013-5-1,74,65,59,63,55,48,80,71,58,30.19,30.07,5,2,8,0.06
2013-5-2,72,65,62,64,55,48,78,69,56,30.22,30.15,4,2,8,0.02
2013-5-3,66,62,56,59,53,48,79,74,65,30.15,30.06,11,3,11,0.01
2013-5-4,66,59,54,58,52,48,81,77,63,30.08,29.94,5,3,12,0.03
2013-5-5,73,64,57,64,55,46,78,73,64,29.96,29.83,8,4,15,0.17
2013-5-6,77,67,56,65,54,42,78,63,42,29.89,29.80,5,2,9,1.00
2013-5-7,70,61,53,59,49,39,78,65,56,29.95,29.87,5,1,8,0.01
2013-5-8,80,65,52,62,52,37,78,62,50,30.01,29.92,3,1,8,0.00
2013-5-9,84,70,58,67,54,41,77,58,46,30.08,29.97,2,0,8,0.00
2013-5-10,87,73,59,69,57,40,76,58,43,30.08,29.98,4,1,9,0.00
2013-5-11,85,75,65,71,60,44,76,61,42,30.01,29.84,3,1,8,0.00
2013-5-12,82,72,59,65,56,45,76,58,41,29.98,29.81,3,0,8,0.01
2013-5-13,73,62,50,52,45,40,78,56,33,30.12,29.98,5,2,10,0.00
2013-5-14,76,61,48,52,44,35,79,56,29,30.25,30.13,4,1,8,0.00
2013-5-15,87,71,53,66,55,37,77,58,43,30.14,29.96,3,1,8,0.00
2013-5-16,88,73,61,71,61,45,77,65,50,30.03,29.95,1,0,8,0.00
2013-5-17,91,75,63,71,58,42,75,56,42,30.09,30.00,3,0,8,0.00
2013-5-18,84,73,63,71,58,42,74,60,41,30.15,30.07,5,1,10,0.00
2013-5-19,82,73,69,71,55,44,73,54,38,30.14,30.06,5,1,8,0.46
2013-5-20,75,72,69,57,48,43,56,44,38,30.12,30.04,3,1,8,0.44
2013-5-21,80,73,68,71,52,41,73,50,33,30.08,29.98,3,1,8,0.05
2013-5-22,84,74,65,72,57,39,73,56,30,30.02,29.92,5,2,8,0.01
2013-5-23,86,73,66,73,49,38,74,45,29,29.97,29.82,4,1,8,1.23
2013-5-24,81,70,56,68,50,36,77,50,32,30.16,29.80,5,1,10,0.01
2013-5-25,77,62,48,56,45,35,78,56,31,30.30,30.14,4,1,8,0.00
2013-5-26,80,65,54,59,46,32,77,51,34,30.26,30.15,3,0,8,0.00
2013-5-27,80,69,57,65,52,33,75,56,36,30.25,30.17,4,1,8,0.00
2013-5-28,83,73,61,70,54,34,74,53,27,30.25,30.18,5,1,8,0.00
2013-5-29,84,73,63,69,54,34,74,52,27,30.26,30.16,4,1,8,0.00
2013-5-30,86,75,63,73,55,33,73,52,27,30.26,30.18,4,1,8,0.00
2013-5-31,84,74,66,73,52,34,73,49,25,30.23,30.14,4,1,9,0.29
2013-6-1,85,75,65,72,53,32,73,49,22,30.16,30.07,4,1,8,0.01
2013-6-2,85,75,65,74,55,32,73,52,21,30.11,29.94,5,2,9,0.00
2013-6-3,81,75,69,68,45,33,65,36,23,29.96,29.84,4,1,8,1.40
2013-6-4,86,76,68,75,53,31,74,49,20,30.05,29.90,4,1,8,0.00
2013-6-5,82,76,72,73,56,40,73,53,30,30.07,29.98,7,2,12,0.00
2013-6-6,81,76,73,70,50,35,72,42,23,29.98,29.76,3,1,8,1.37
2013-6-7,80,76,73,71,49,31,74,41,20,29.84,29.52,7,2,12,1.33
2013-6-8,88,80,73,76,58,31,73,50,20,30.09,29.83,2,0,8,0.01
2013-6-9,86,79,74,76,54,27,73,48,15,30.15,30.07,4,1,8,0.00
2013-6-10,87,79,71,77,56,30,73,48,19,30.12,29.94,6,1,8,0.02
2013-6-11,88,77,70,77,50,26,72,43,17,30.01,29.89,1,0,8,0.00
2013-6-12,93,82,71,79,54,22,72,43,13,29.98,29.87,1,0,8,0.00
2013-6-13,95,85,76,81,60,21,72,48,12,29.90,29.66,3,1,8,0.00
2013-6-14,84,77,69,72,56,27,73,51,18,30.00,29.70,4,1,9,0.02
2013-6-15,84,74,63,68,51,23,73,47,19,30.12,30.00,4,1,8,0.00
2013-6-16,87,75,63,70,54,22,73,51,18,30.16,30.05,4,1,8,0.00
2013-6-17,88,77,67,75,52,21,72,47,15,30.08,29.96,5,1,8,0.06
2013-6-18,89,80,72,78,54,22,72,47,14,30.01,29.81,4,0,8,0.00
2013-6-19,79,75,72,70,52,22,73,49,14,30.06,29.86,3,1,8,0.00
2013-6-20,85,76,69,71,58,37,74,57,30,30.17,30.05,4,2,8,0.01
2013-6-21,84,74,64,74,60,44,75,65,34,30.19,30.12,4,2,9,0.03
2013-6-22,85,77,71,75,51,25,75,46,17,30.15,30.08,3,0,8,0.00
2013-6-25,90,84,75,77,70,24,73,64,15,30.14,30.03,3,1,0,0.00
2013-6-26,90,79,72,77,46,-4,72,41,4,30.06,29.94,3,1,0,0.06
2013-6-27,93,80,72,80,46,0,74,39,5,29.97,29.77,5,1,10,0.00
2013-6-28,92,83,76,80,65,41,73,56,26,29.80,29.62,3,1,5,0.00
2013-6-29,89,79,74,78,51,8,74,45,7,29.76,29.65,4,1,5,0.34
2013-6-30,84,77,72,75,29,0,74,24,5,29.87,29.73,4,1,6,0.13
2013-7-1,82,77,72,64,-14,-100,57,15,1,30.03,29.82,6,2,9,0.70
2013-7-2,81,77,72,37,-87,-100,22,1,1,30.16,30.02,4,1,8,0.07
2013-7-3,86,79,74,69,-52,-100,58,12,1,30.23,30.13,5,1,7,0.01
2013-7-4,87,81,75,73,-12,-100,64,27,4,30.24,30.18,5,2,12,0.00
2013-7-5,87,80,74,72,-27,-100,62,19,1,30.24,30.17,6,2,11,0.00
2013-7-6,87,80,72,73,-16,-100,64,27,13,30.24,30.14,5,2,9,0.01
2013-7-7,88,79,72,73,-17,-100,63,24,4,30.19,30.09,4,1,5,0.00
2013-7-8,88,78,70,74,-20,-100,64,26,12,30.18,30.10,4,1,4,0.01
2013-7-9,89,80,73,75,-15,-100,63,27,2,30.18,30.08,4,1,7,0.00
2013-7-10,87,80,74,72,-24,-100,63,22,3,30.13,29.97,4,1,6,0.00
2013-7-11,90,81,73,76,-35,-100,64,21,2,30.00,29.88,4,1,8,0.00
2013-7-12,80,76,73,42,-80,-100,26,2,2,29.97,29.87,2,0,4,0.11
2013-7-13,84,78,74,65,-74,-100,53,6,1,30.10,29.93,5,2,6,0.62
2013-7-14,87,81,75,73,-16,-100,64,26,2,30.23,30.10,6,3,12,0.03
2013-7-15,88,81,76,74,-20,-100,64,25,2,30.26,30.20,5,2,12,0.01
2013-7-16,92,81,74,75,-15,-100,64,27,1,30.27,30.16,3,1,4,0.01
2013-7-17,93,79,73,79,-58,-100,63,13,4,30.21,30.10,11,0,11,1.32
2013-7-18,91,80,73,76,-31,-100,64,21,3,30.14,30.05,4,1,5,0.01
2013-7-19,89,80,73,74,-26,-100,64,19,3,30.12,30.00,5,1,5,0.06
2013-7-20,89,79,74,75,-49,-100,64,17,4,30.08,29.98,4,1,7,0.26
2013-7-21,86,78,74,66,-88,-100,54,3,1,30.03,29.93,4,0,5,0.10
2013-7-22,90,81,75,76,-29,-100,65,22,3,29.98,29.87,1,0,4,0.00
2013-7-23,90,81,75,76,-24,-100,65,24,1,29.91,29.75,2,0,4,0.00
2013-7-24,89,81,74,76,-16,-100,65,27,6,29.81,29.74,4,0,6,0.00
2013-7-25,89,80,72,75,8,-100,66,35,6,29.99,29.76,4,1,7,0.00
2013-7-26,88,79,72,74,8,-100,66,33,1,30.06,29.97,3,1,6,0.00
2013-7-27,88,79,71,74,-15,-100,66,29,2,30.04,29.92,5,1,6,0.00
2013-7-28,88,79,74,74,-44,-100,64,14,1,30.02,29.90,4,0,6,0.07
2013-7-29,91,79,72,77,-49,-100,64,17,6,30.15,30.00,6,0,9,2.02
2013-7-30,88,79,73,74,-22,-100,65,23,3,30.17,30.09,4,1,5,0.01
2013-7-31,87,79,74,72,-46,-100,62,14,2,30.12,30.01,3,1,4,0.10
2013-8-1,85,78,74,68,-69,-100,59,7,2,30.00,29.91,2,0,3,0.41
2013-8-2,88,79,73,72,-60,-100,60,10,1,30.04,29.92,3,0,5,0.61
2013-8-3,88,81,75,72,-35,-100,61,18,1,30.04,29.91,3,0,7,0.01
2013-8-4,91,81,73,76,-10,-100,65,30,1,29.99,29.88,5,1,7,0.00
2013-8-5,86,78,70,69,-4,-100,65,31,5,30.05,29.96,5,1,9,0.00
2013-8-6,84,76,68,70,-19,-100,65,28,3,30.05,29.96,3,0,4,0.00
2013-8-7,86,78,70,72,-18,-100,64,27,4,30.07,30.01,4,1,6,0.01
2013-8-8,89,80,72,75,-24,-100,63,24,1,30.05,29.99,4,1,6,0.00
2013-8-9,92,82,74,77,-18,-100,63,25,2,30.09,30.01,4,1,5,0.00
2013-8-10,94,82,73,78,-22,-100,63,24,6,30.11,30.02,4,0,6,0.02
2013-8-11,95,84,76,79,-12,-100,62,28,1,30.12,30.00,2,0,3,0.00
2013-8-12,96,84,77,80,-16,-100,62,23,2,30.06,29.92,1,0,3,0.04
2013-8-13,94,84,78,77,-30,-100,63,22,12,29.95,29.80,1,0,3,0.04
2013-8-14,82,77,68,57,-52,-100,45,8,1,30.02,29.80,4,1,7,0.13
2013-8-15,74,67,64,33,-81,-100,28,2,1,30.10,29.97,6,3,8,1.47
2013-8-16,74,70,66,5,-98,-100,7,0,3,30.10,30.03,4,2,9,1.36
2013-8-17,78,73,70,34,-85,-100,20,1,1,30.14,30.02,4,1,5,0.00
2013-8-18,89,78,71,74,-34,-100,62,19,1,30.19,30.09,3,0,4,0.01
2013-8-19,87,78,75,70,-82,-100,57,5,1,30.16,30.05,4,1,7,0.29
2013-8-20,88,79,76,72,-67,-100,59,6,1,30.17,30.06,2,0,4,0.00
2013-8-21,90,80,73,75,-29,-100,62,20,3,30.20,30.09,3,0,4,0.01
2013-8-22,76,76,76,-100,-100,-100,0,0,100,30.15,30.14,0,0,3,0.00